Regional Weather Roundup
Issued by NWS

Home | Current Version | Previous Version | Text Only | Print | Product List | Glossary On
Versions: 1 2 3 4 5 6 7 8 9 10 11 12 13 14 15 16 17 18 19 20 21 22 23 24 25 26 27 28 29 30 31 32 33 34 35 36 37 38 39 40 41 42 43 44 45 46 47 48 49 50
000
ASUS45 KBOI 182310
RWRID

IDAHO REGIONAL WEATHER ROUNDUP
NATIONAL WEATHER SERVICE BOISE ID
400 PM MST SAT JAN 18 2020

NOTE: "FAIR" INDICATES FEW OR NO CLOUDS BELOW 12000 FEET
WITH NO SIGNIFICANT WEATHER AND/OR OBSTRUCTIONS TO VISIBILITY

IDZ012-014-190000-
SOUTHWEST IDAHO


CITY           SKY/WX    TMP DP  RH WIND       PRES   REMARKS
BOISE          CLOUDY    42  23  46 SE8       30.41R
CALDWELL       CLOUDY    43  25  49 E3        30.43R
MOUNTAIN HOME  CLOUDY    40  23  50 E18       30.40R WCI  31
$$

IDZ016-017-190000-
SOUTHCENTRAL IDAHO


CITY           SKY/WX    TMP DP  RH WIND       PRES   REMARKS
BURLEY         MOSUNNY   34  24  67 N5        30.39R WCI  30
JEROME         CLOUDY    30  23  75 NE18      30.40R WCI  18
TWIN FALLS     PTSUNNY   34  24  67 NE8       30.39R WCI  27
$$

IDZ019>023-190000-
SOUTHEAST IDAHO


CITY           SKY/WX    TMP DP  RH WIND       PRES   REMARKS
IDAHO FALLS    MOSUNNY   20  13  74 CALM      30.42R
POCATELLO      MOSUNNY   28  18  66 N6        30.42R WCI  22
REXBURG        CLOUDY    28  17  63 NE5       30.41R WCI  23
$$

IDZ006-010-011-018-031-032-190000-
CENTRAL IDAHO MOUNTAINS


CITY           SKY/WX    TMP DP  RH WIND       PRES   REMARKS
MCCALL         CLOUDY    26  23  88 SW3       30.34R
HAILEY         PTSUNNY   30  16  55 CALM      30.40R
STANLEY          N/A     24  18  77 CALM      30.32R
SALMON         CLOUDY    28  15  58 N3        30.38R
CHALLIS        CLOUDY    22   9  57 S5        30.36R WCI  16
$$

IDZ002-004-006-007-026-190000-
NORTHERN IDAHO


CITY           SKY/WX    TMP DP  RH WIND       PRES   REMARKS
LEWISTON       CLOUDY    39  29  67 SE5       30.33R
LOWELL           N/A     33  31  92 CALM      30.42R
COEUR D`ALENE  LGT SNOW  30  28  93 NE6       30.32R FOG     WCI  24
MULLAN PASS    LGT SNOW  25  19  78 S3        30.18R VSB 3/4
$$




USA.gov is the U.S. government's official web portal to all federal, state and local government web resources and services.